Simultaneous Nadir Overpasses (SNOs) Predictions

Prediction of SNOs between NOAA-19 and METOP-C Satellite Orbit:

Table of predicted SNOs for the next 14.0 days since TLE Epoch: 9/30/2023
Index Date (NOAA-19) Time (NOAA-19) Lat,Lon (NOAA-19) SZA (NOAA-19 ) Date (METOP-C) Time (METOP-C) Lat,Lon (METOP-C) SZA (METOP-C ) Distance(km) Time Diff (sec)
1 09/30/2023 13:05:00 -80.86,-162.70 94.61 09/30/2023 13:06:00 -80.86,-162.76 94.59 0.95 60
2 09/30/2023 13:55:56 80.86, 4.64 85.42 09/30/2023 13:56:41 80.86, 4.56 85.42 1.38 45
3 09/30/2023 14:46:58 -80.87, 172.10 94.55 09/30/2023 14:47:21 -80.87, 172.14 94.53 0.97 23
4 09/30/2023 15:37:54 80.87, -20.55 85.48 09/30/2023 15:38:02 80.87, -20.54 85.48 0.44 8
5 09/30/2023 16:28:57 -80.86, 146.53 94.53 09/30/2023 16:28:43 -80.86, 146.68 94.52 2.70 14
6 09/30/2023 17:19:53 80.87, -46.12 85.50 09/30/2023 17:19:24 80.86, -46.00 85.50 2.06 29
7 09/30/2023 18:10:54 -80.88, 121.70 94.43 09/30/2023 18:10:04 -80.88, 121.58 94.46 2.13 50
8 09/30/2023 19:01:50 80.88, -70.94 85.60 09/30/2023 19:00:45 80.88, -71.11 85.55 2.90 65
9 10/12/2023 02:58:37 80.83, 168.24 89.81 10/12/2023 02:59:48 80.83, 168.34 89.85 1.74 71
10 10/12/2023 03:49:36 -80.84, -24.17 90.14 10/12/2023 03:50:29 -80.84, -24.14 90.12 0.47 53
11 10/12/2023 04:40:34 80.85, 143.40 89.91 10/12/2023 04:41:09 80.85, 143.23 89.90 3.10 35
12 10/12/2023 05:31:34 -80.85, -49.38 90.08 10/12/2023 05:31:50 -80.86, -49.25 90.06 2.37 16
13 10/12/2023 06:22:32 80.86, 118.19 89.97 10/12/2023 06:22:30 80.86, 118.12 89.96 1.36 2
14 10/12/2023 07:13:32 -80.86, -74.60 90.03 10/12/2023 07:13:12 -80.85, -74.72 90.05 2.32 20
15 10/12/2023 08:04:30 80.86, 92.99 90.03 10/12/2023 08:03:51 80.87, 93.01 90.02 0.70 39
16 10/12/2023 08:55:30 -80.86, -99.81 89.97 10/12/2023 08:54:33 -80.86, -99.83 89.99 0.42 57



Historial Predications of SNOs between NOAA-19 and METOP-C
